BKP136 VTSM-VTBS

Flight info

Callsign BKP136
Flight time N/A
Altitude 39000
Route OLBAG1A OLBAG Y17 DONSI M769 LEBIM LEBIM1C
Aircraft A319/M-SDE3FGHIRWY/LB1

Departure

Time 2026-04-29 11:17
Airport Samui International Airport (VTSM)

Arrival

Time N/A
Airport Suvarnabhumi Airport (VTBS)
Time Latitude Longitude Altitude Speed Heading
2026-04-29 11:00 9.55202 100.06331 53 ft 0 kts 84°
2026-04-29 11:11 9.55200 100.06318 53 ft 4 kts 96°
2026-04-29 11:11 9.55209 100.06295 49 ft 4 kts 146°
2026-04-29 11:12 9.55222 100.06289 53 ft 0 kts 174°
2026-04-29 11:15 9.55204 100.06288 53 ft 4 kts 197°
2026-04-29 11:15 9.55188 100.06253 53 ft 7 kts 262°
2026-04-29 11:15 9.55238 100.06204 53 ft 14 kts 347°
2026-04-29 11:15 9.55349 100.06191 51 ft 18 kts 354°
2026-04-29 11:16 9.55485 100.06176 50 ft 21 kts 354°
2026-04-29 11:16 9.55641 100.06182 53 ft 24 kts 15°
2026-04-29 11:16 9.55712 100.06163 53 ft 10 kts 245°
2026-04-29 11:16 9.55616 100.06165 53 ft 32 kts 170°
2026-04-29 11:17 9.55175 100.06209 53 ft 94 kts 174°
2026-04-29 11:17 9.54325 100.06290 77 ft 147 kts 174°
2026-04-29 11:17 9.53264 100.06400 580 ft 157 kts 169°
2026-04-29 11:17 9.52195 100.06753 1171 ft 169 kts 156°
2026-04-29 11:18 9.51086 100.07287 1754 ft 182 kts 154°
2026-04-29 11:18 9.49907 100.07867 2407 ft 191 kts 153°
2026-04-29 11:18 9.48718 100.08502 3045 ft 200 kts 151°
2026-04-29 11:18 9.47483 100.09219 3727 ft 208 kts 149°
2026-04-29 11:19 9.46287 100.10085 4436 ft 215 kts 134°
2026-04-29 11:19 9.45522 100.11413 5096 ft 228 kts 101°
2026-04-29 11:19 9.45474 100.13023 6030 ft 230 kts 85°
2026-04-29 11:19 9.45658 100.14646 7018 ft 233 kts 82°
2026-04-29 11:20 9.46086 100.16229 7927 ft 237 kts 60°
2026-04-29 11:20 9.46753 100.17138 8550 ft 239 kts 45°
2026-04-29 11:20 9.48081 100.18109 9480 ft 241 kts 23°
2026-04-29 11:20 9.50286 100.18634 10721 ft 245 kts
2026-04-29 11:21 9.51405 100.18816 11328 ft 247 kts
2026-04-29 11:21 9.53114 100.19093 12219 ft 251 kts
2026-04-29 11:21 9.54845 100.19362 13091 ft 254 kts
2026-04-29 11:21 9.55445 100.19396 13358 ft 257 kts